Location: Deurze
(52.9838°N, 6.6090°E)
Time: 19:31:55
(UTC+00:00)

Cosmos 2266 Rocket - Pass Details

Date: 11 March 2026
Orbit: 933 x 1007 km, 82.9° (Epoch: 20 April)

Event Time Altitude Azimuth Distance (km) Brightness Sun altitude
Rises 19:26:51 0° 181° (S) 3,661 6.8 -18.1°
Reaches altitude 10° 19:29:20 10° 180° (S) 2,728 6.1 -18.4°
Maximum altitude 19:35:35 75° 96° (E) 1,030 3.9 -19.3°
Drops below altitude 10° 19:41:58 10° 13° (NNE) 2,787 6.5 -20.2°
Sets 19:44:32 0° 12° (NNE) 3,746 7.2 -20.6°
